Daviess Cnty AP, Washington,, IN

1:21 AM EST on November 20, 2019 (GMT -0500)
Daviess County

Weather History for KDCY - September, 2019

Change the Weather History Date:

Monday, September 30, 2019

  Actual Average (WUND) Record (WUND)
Temperature  
Mean Temperature 79 °F -  
Max Temperature 91 °F - - (-1)
Min Temperature 67 °F - - (-1)
Cooling Degree Days 14    
Growing Degree Days 29 (Base 50)    
Moisture  
Dew Point 66 °F    
Average Humidity 69    
Maximum Humidity 100    
Minimum Humidity 41    
Precipitation  
Precipitation 0.00 in - - ()
Sea Level Pressure  
Sea Level Pressure 30.09 in    
Wind  
Wind Speed 5 mph (SSW)    
Max Wind Speed 12 mph    
Max Gust Speed 21 mph    
Visibility 10 miles    
Events      
Averages and records for this station are not official NWS values.
T = Trace of Precipitation, MM = Missing Value Source: NWS Daily Summary

Daily Weather History Graph

Daily Weather History Graph

Search for Another Location

Airport or City:

Astronomy

Sep. 30, 2019 Rise Set
Actual Time 7:43 AM EDT 7:33 PM EDT
Civil Twilight 7:16 AM EDT 7:59 PM EDT
Nautical Twilight 6:45 AM EDT 8:30 PM EDT
Astronomical Twilight 6:14 AM EDT 9:01 PM EDT
Moon 9:45 AM EDT (9/30) 9:09 PM EDT (9/30)
Length of Visible Light 12h 42m
Length of Day
11h 49m
Waxing Crescent, 5% of the Moon is Illuminated
Sep 30
Waxing Crescent
Oct 5
First Quarter
Oct 13
Full
Oct 21
Last Quarter
Oct 27
New

Hourly Weather History & Observations

Time (EDT) Temp. Heat Index Dew Point Humidity Pressure Visibility Wind Dir Wind Speed Gust Speed Precip Events Conditions
12:15 AM 77.4 °F - 64.8 °F 65% 30.12 in 10.0 mi SSW 4.6 mph - N/A   Clear
12:35 AM 76.6 °F - 64.8 °F 67% 30.11 in 10.0 mi SW 6.9 mph - N/A   Clear
12:50 AM 75.6 °F - 64.6 °F 69% 30.11 in 10.0 mi SW 5.8 mph - N/A   Clear
1:10 AM 72.3 °F - 64.6 °F 77% 30.11 in 10.0 mi Calm Calm - N/A   Clear
1:35 AM 70.7 °F - 64.6 °F 81% 30.11 in 10.0 mi South 3.5 mph - N/A   Clear
1:55 AM 70.5 °F - 65.1 °F 83% 30.10 in 10.0 mi Calm Calm - N/A   Clear
2:15 AM 70.3 °F - 65.3 °F 84% 30.11 in 10.0 mi Calm Calm - N/A   Clear
2:35 AM 70.7 °F - 65.5 °F 83% 30.11 in 10.0 mi Calm Calm - N/A   Clear
2:55 AM 69.4 °F - 65.7 °F 88% 30.11 in 10.0 mi East 3.5 mph - N/A   Clear
3:15 AM 69.3 °F - 66.0 °F 89% 30.10 in 10.0 mi Calm Calm - N/A   Clear
3:35 AM 68.4 °F - 66.2 °F 93% 30.10 in 10.0 mi Calm Calm - N/A   Clear
3:55 AM 68.5 °F - 68.0 °F 98% 30.10 in 10.0 mi Calm Calm - N/A   Clear
4:15 AM 67.6 °F - 67.3 °F 99% 30.11 in 10.0 mi SE 4.6 mph - N/A   Clear
4:35 AM 68.2 °F - 68.0 °F 99% 30.11 in 10.0 mi Calm Calm - N/A   Clear
4:55 AM 67.8 °F - 67.6 °F 99% 30.11 in 10.0 mi ESE 3.5 mph - N/A   Clear
5:15 AM 68.0 °F - 67.6 °F 99% 30.11 in 10.0 mi SE 4.6 mph - N/A   Clear
5:35 AM 68.0 °F - 67.5 °F 98% 30.12 in 10.0 mi ESE 3.5 mph - N/A   Clear
5:50 AM 68.0 °F - 67.5 °F 98% 30.12 in 10.0 mi SE 4.6 mph - N/A   Clear
6:15 AM 68.0 °F - 68.0 °F 100% 30.12 in 10.0 mi ESE 3.5 mph - N/A   Clear
6:35 AM 67.5 °F - 67.3 °F 99% 30.12 in 10.0 mi SE 4.6 mph - N/A   Clear
7:00 AM 67.1 °F - 66.7 °F 99% 30.13 in 10.0 mi SSE 3.5 mph - N/A   Clear
7:15 AM 67.5 °F - 67.1 °F 99% 30.13 in 10.0 mi Calm Calm - N/A   Clear
7:35 AM 67.5 °F - 67.3 °F 99% 30.13 in 10.0 mi Calm Calm - N/A   Clear
7:55 AM 68.0 °F - 67.5 °F 98% 30.13 in 10.0 mi Calm Calm - N/A   Clear
8:10 AM 68.2 °F - 68.0 °F 99% 30.14 in 10.0 mi SSE 3.5 mph - N/A   Clear
8:30 AM 69.8 °F - 68.9 °F 97% 30.14 in 10.0 mi SE 3.5 mph - N/A   Clear
8:55 AM 72.3 °F - 68.9 °F 89% 30.14 in 10.0 mi SE 4.6 mph - N/A   Clear
9:15 AM 73.9 °F - 66.9 °F 79% 30.14 in 10.0 mi ESE 3.5 mph - N/A   Clear
9:35 AM 75.2 °F - 66.9 °F 75% 30.15 in 10.0 mi East 4.6 mph - N/A   Scattered Clouds
9:55 AM 77.2 °F - 67.3 °F 71% 30.15 in 10.0 mi ESE 3.5 mph - N/A   Mostly Cloudy
10:15 AM 79.3 °F - 67.5 °F 67% 30.15 in 10.0 mi Calm Calm - N/A   Mostly Cloudy
10:35 AM 81.0 °F 83.6 °F 67.8 °F 64% 30.15 in 10.0 mi SW 4.6 mph - N/A   Mostly Cloudy
10:55 AM 83.5 °F 86.9 °F 68.5 °F 61% 30.15 in 10.0 mi WSW 5.8 mph - N/A   Mostly Cloudy
11:15 AM 83.8 °F 87.5 °F 69.1 °F 61% 30.15 in 10.0 mi SW 4.6 mph - N/A   Scattered Clouds
11:35 AM 85.5 °F 88.8 °F 68.2 °F 56% 30.15 in 10.0 mi SSW 5.8 mph - N/A   Clear
11:55 AM 87.1 °F 90.9 °F 68.5 °F 54% 30.15 in 10.0 mi SW 4.6 mph - N/A   Clear
12:15 PM 87.1 °F 90.6 °F 68.0 °F 53% 30.15 in 10.0 mi SSW 5.8 mph - N/A   Clear
12:35 PM 88.7 °F 92.2 °F 67.6 °F 50% 30.14 in 10.0 mi SW 8.1 mph - N/A   Clear
12:55 PM 89.2 °F 92.4 °F 67.1 °F 48% 30.13 in 10.0 mi WSW 10.4 mph - N/A   Clear
1:15 PM 89.8 °F 92.5 °F 66.7 °F 46% 30.12 in 10.0 mi WSW 9.2 mph - N/A   Scattered Clouds
1:55 PM 90.5 °F 94.2 °F 67.5 °F 47% 30.11 in 10.0 mi SW 8.1 mph 16.1 mph N/A   Mostly Cloudy
2:10 PM 91.4 °F 94.5 °F 66.9 °F 44% 30.10 in 10.0 mi SSW 11.5 mph 17.3 mph N/A   Scattered Clouds
2:35 PM 91.6 °F 94.8 °F 66.7 °F 44% 30.09 in 10.0 mi SSW 11.5 mph 16.1 mph N/A   Scattered Clouds
2:55 PM 91.9 °F 95.0 °F 66.4 °F 43% 30.08 in 10.0 mi SW 8.1 mph - N/A   Clear
3:15 PM 91.9 °F 94.1 °F 65.3 °F 41% 30.08 in 10.0 mi SW 10.4 mph 20.7 mph N/A   Clear
3:35 PM 91.0 °F 93.8 °F 66.6 °F 44% 30.07 in 10.0 mi WSW 9.2 mph - N/A   Scattered Clouds
3:55 PM 91.4 °F 94.0 °F 66.0 °F 43% 30.06 in 10.0 mi SW 10.4 mph - N/A   Mostly Cloudy
4:15 PM 90.5 °F 92.5 °F 65.1 °F 43% 30.05 in 10.0 mi WSW 9.2 mph 16.1 mph N/A   Scattered Clouds
4:35 PM 90.0 °F 92.0 °F 65.1 °F 44% 30.05 in 10.0 mi SW 10.4 mph - N/A   Scattered Clouds
4:55 PM 90.5 °F 92.9 °F 65.8 °F 44% 30.04 in 10.0 mi SW 6.9 mph 10.4 mph N/A   Scattered Clouds
5:15 PM 91.8 °F 93.8 °F 65.1 °F 41% 30.04 in 10.0 mi SSW 9.2 mph - N/A   Mostly Cloudy
5:35 PM 91.2 °F 93.7 °F 65.7 °F 43% 30.04 in 10.0 mi SW 11.5 mph 18.4 mph N/A   Scattered Clouds
5:55 PM 90.7 °F 92.8 °F 65.1 °F 43% 30.04 in 10.0 mi SW 9.2 mph - N/A   Scattered Clouds
6:15 PM 90.0 °F 91.7 °F 64.9 °F 43% 30.04 in 10.0 mi WSW 10.4 mph - N/A   Clear
6:35 PM 88.7 °F 90.4 °F 64.6 °F 45% 30.03 in 10.0 mi SW 10.4 mph - N/A   Clear
6:55 PM 87.8 °F 89.4 °F 64.8 °F 46% 30.03 in 10.0 mi SW 4.6 mph - N/A   Clear
7:20 PM 83.5 °F 85.3 °F 65.3 °F 54% 30.03 in 10.0 mi SSW 5.8 mph - N/A   Clear
7:55 PM 76.5 °F - 66.2 °F 70% 30.03 in 10.0 mi SSW 5.8 mph - N/A   Clear
8:15 PM 75.2 °F - 65.8 °F 73% 30.03 in 10.0 mi SSW 5.8 mph - N/A   Clear
8:35 PM 76.3 °F - 65.5 °F 69% 30.03 in 10.0 mi SSW 5.8 mph - N/A   Clear
8:55 PM 79.0 °F - 65.5 °F 63% 30.03 in 10.0 mi SSW 6.9 mph - N/A   Clear
9:35 PM 79.7 °F - 65.3 °F 61% 30.03 in 10.0 mi SSW 6.9 mph - N/A   Clear
9:55 PM 79.9 °F - 65.3 °F 61% 30.03 in 10.0 mi SSW 6.9 mph - N/A   Clear
10:15 PM 79.0 °F - 65.3 °F 63% 30.03 in 10.0 mi SW 8.1 mph - N/A   Clear
10:30 PM 79.7 °F - 65.3 °F 61% 30.03 in 10.0 mi SSW 6.9 mph - N/A   Clear
10:55 PM 77.7 °F - 65.5 °F 66% 30.04 in 10.0 mi SSW 5.8 mph - N/A   Clear
11:15 PM 77.0 °F - 65.5 °F 67% 30.04 in 10.0 mi SSW 6.9 mph - N/A   Clear
11:35 PM 75.2 °F - 65.5 °F 72% 30.04 in 10.0 mi SW 5.8 mph - N/A   Clear
11:55 PM 75.4 °F - 65.5 °F 71% 30.04 in 10.0 mi SSW 5.8 mph - N/A   Clear